IRIDIUM 33 DEB, 46965

Orbit data source: Space-Track

IRIDIUM 33 DEB, 46965 is space debris in LEO originally from a launch on Sun, 14 Sep 1997 UTC launched from the Tyuratam Missile And Space Complex (TTMTR). The debris from Iridium 33, an American commercial communications satellite, has been tracked extensively since its accidental collision with the defunct Russian satellite Cosmos 2251 in 2009. This event, occurring at high speed in low Earth orbit (LEO), generated thousands of pieces of space debris, significantly increasing the risk of further collisions. The Iridium 33 debris cloud has impacted space traffic management and orbital debris mitigation strategies, making it a subject of ongoing study in space situational awareness.

Loading next visibility...
Identifier
46965, 1997-051ABX
Orbit
LEO
Country
Flag of USUS
Related business
Manufacturer
Unknown
Mission
Spacecraft
Bus & Motor
Unknown
Mass
Unknown
Launch date (UTC)
1997-09-14 (29 years ago)
Launch vehicle
Unknown
Launch site
Tyuratam Missile And Space Complex (TTMTR)
Object type
Payload
Rocket body
Debris
Shape & HBR
Unknown shape, 0.1 m
Radar Cross Section
Small (<0.1 m²)

Expand to show TLE details & history
Last TLE update: 4 days ago

TLE from 4 days ago
0 IRIDIUM 33 DEB
1 46965U 97051ABX 26169.69513884  .00002015  00000-0  39972-3 0  9991
2 46965  86.3345 257.2240 0020485  52.6480  99.8093 14.61633290650124
Epoch: 2026-06-18T16:40Z
TLE epoch observation values (Epoch: 2026-06-18T16:40:59.995Z)
Latitude
27.28984°
Longitude
-81.84458°
Altitude
693.896 km
Speed
7.51 km/s
True Right ascension
05h 01m 21s
True Declination
27° 08' 55"
Sunlit
Object was in daylight at epoch
Visualization orbit readout
Latitude
Unknown
Longitude
Unknown
Altitude
Unknown
Speed
Unknown
Apparent Right ascension
Unknown
Apparent Declination
Unknown
Sunlit
N/A
Visualization observer readout
Local Sidereal Time
21:39:34
Azimuth
Unknown
Elevation
Unknown
Doppler factor
Unknown
Orbital elements
Apogee altitude
699.301 km
Perigee altitude
670.364 km
Semi-major axis
7,062.969 km
Eccentricity
0.00205
Inclination
86.3345°
RAAN
257.224°
Arg. of periapsis
52.648°
True anomaly
100.04051°
Mean anomaly
99.8093°
Eccentric anomaly
99.92491°
Mean motion
3.65647 °/min
Orbital period
98.46 mins
BSTAR
0.00039972
Loading maneuver chart data...
Computing Atmospheric mass density...

Documentation

Showing up to 5 results
|